Location: Ceske Budejovice
(48.9830°N, 14.4670°E)
Time: 19:54:43
(UTC+01:00)

ISS - Pass Details

Date: 23 November 2019
Orbit: 411 x 421 km, 51.6° (Epoch: 07 December)

Event Time Altitude Azimuth Distance (km) Brightness Sun altitude
Rises 17:37:42 0° 203° (SSW) 2,343 0.6 -13.5°
Reaches altitude 10° 17:40:14 10° 183° (S) 1,487 -0.7 -13.9°
Maximum altitude 17:42:33 18° 139° (SE) 1,116 -1.9 -14.3°
Enters shadow 17:43:06 17° 126° (SE) 1,141 -1.9 -14.4°
